Year,Month,Day,Hour,Minute,Value (Times are PST for temperature in C)
2020,02,03,00,00,1.80
2020,02,03,00,01,1.80
2020,02,03,00,02,1.80
2020,02,03,00,03,1.80
2020,02,03,00,04,1.80
2020,02,03,00,05,1.80
2020,02,03,00,06,1.80
2020,02,03,00,07,1.70
2020,02,03,00,08,1.70
2020,02,03,00,09,1.70
2020,02,03,00,10,1.70
2020,02,03,00,11,1.70
2020,02,03,00,12,1.70
2020,02,03,00,13,1.60
2020,02,03,00,14,1.60
2020,02,03,00,15,1.60
2020,02,03,00,16,1.60
2020,02,03,00,17,1.50
2020,02,03,00,18,1.50
2020,02,03,00,19,1.50
2020,02,03,00,20,1.50
2020,02,03,00,21,1.40
2020,02,03,00,22,1.40
2020,02,03,00,23,1.40
2020,02,03,00,24,1.40
2020,02,03,00,25,1.40
2020,02,03,00,26,1.40
2020,02,03,00,27,1.30
2020,02,03,00,28,1.30
2020,02,03,00,29,1.30
2020,02,03,00,30,1.30
2020,02,03,00,31,1.30
2020,02,03,00,32,1.30
2020,02,03,00,33,1.30
2020,02,03,00,34,1.30
2020,02,03,00,35,1.30
2020,02,03,00,36,1.30
2020,02,03,00,37,1.30
2020,02,03,00,38,1.30
2020,02,03,00,39,1.30
2020,02,03,00,40,1.30
2020,02,03,00,41,1.30
2020,02,03,00,42,1.30
2020,02,03,00,43,1.30
2020,02,03,00,44,1.30
2020,02,03,00,45,1.30
2020,02,03,00,46,1.30
2020,02,03,00,47,1.30
2020,02,03,00,48,1.30
2020,02,03,00,49,1.30
2020,02,03,00,50,1.30
2020,02,03,00,51,1.30
2020,02,03,00,52,1.30
2020,02,03,00,53,1.30
2020,02,03,00,54,1.30
2020,02,03,00,55,1.30
2020,02,03,00,56,1.30
2020,02,03,00,57,1.30
2020,02,03,00,58,1.30
2020,02,03,00,59,1.30
2020,02,03,01,00,1.30
2020,02,03,01,01,1.30
2020,02,03,01,02,1.30
2020,02,03,01,03,1.30
2020,02,03,01,04,1.30
2020,02,03,01,05,1.30
2020,02,03,01,06,1.30
2020,02,03,01,07,1.20
2020,02,03,01,08,1.20
2020,02,03,01,09,1.20
2020,02,03,01,10,1.20
2020,02,03,01,11,1.20
2020,02,03,01,12,1.20
2020,02,03,01,13,1.20
2020,02,03,01,14,1.20
2020,02,03,01,15,1.20
2020,02,03,01,16,1.20
2020,02,03,01,17,1.20
2020,02,03,01,18,1.20
2020,02,03,01,19,1.20
2020,02,03,01,20,1.20
2020,02,03,01,21,1.20
2020,02,03,01,22,1.20
2020,02,03,01,23,1.20
2020,02,03,01,24,1.20
2020,02,03,01,25,1.20
2020,02,03,01,26,1.20
2020,02,03,01,27,1.20
2020,02,03,01,28,1.20
2020,02,03,01,29,1.20
2020,02,03,01,30,1.20
2020,02,03,01,31,1.20
2020,02,03,01,32,1.20
2020,02,03,01,33,1.20
2020,02,03,01,34,1.20
2020,02,03,01,35,1.20
2020,02,03,01,36,1.20
2020,02,03,01,37,1.20
2020,02,03,01,38,1.20
2020,02,03,01,39,1.20
2020,02,03,01,40,1.20
2020,02,03,01,41,1.20
2020,02,03,01,42,1.20
2020,02,03,01,43,1.20
2020,02,03,01,44,1.20
2020,02,03,01,45,1.20
2020,02,03,01,46,1.20
2020,02,03,01,47,1.20
2020,02,03,01,48,1.20
2020,02,03,01,49,1.10
2020,02,03,01,50,1.10
2020,02,03,01,51,1.00
2020,02,03,01,52,1.00
2020,02,03,01,53,0.90
2020,02,03,01,54,0.90
2020,02,03,01,55,0.90
2020,02,03,01,56,0.90
2020,02,03,01,57,0.90
2020,02,03,01,58,0.90
2020,02,03,01,59,0.90
2020,02,03,02,00,0.90
2020,02,03,02,01,0.90
2020,02,03,02,02,0.90
2020,02,03,02,03,0.80
2020,02,03,02,04,0.80
2020,02,03,02,05,0.80
2020,02,03,02,06,0.80
2020,02,03,02,07,0.80
2020,02,03,02,08,0.80
2020,02,03,02,09,0.80
2020,02,03,02,10,0.80
2020,02,03,02,11,0.80
2020,02,03,02,12,0.80
2020,02,03,02,13,0.80
2020,02,03,02,14,0.90
2020,02,03,02,15,0.90
2020,02,03,02,16,0.90
2020,02,03,02,17,0.90
2020,02,03,02,18,0.90
2020,02,03,02,19,0.90
2020,02,03,02,20,0.90
2020,02,03,02,21,0.80
2020,02,03,02,22,0.80
2020,02,03,02,23,0.80
2020,02,03,02,24,0.80
2020,02,03,02,25,0.80
2020,02,03,02,26,0.80
2020,02,03,02,27,0.80
2020,02,03,02,28,0.80
2020,02,03,02,29,0.80
2020,02,03,02,30,0.80
2020,02,03,02,31,0.80
2020,02,03,02,32,0.70
2020,02,03,02,33,0.70
2020,02,03,02,34,0.70
2020,02,03,02,35,0.70
2020,02,03,02,36,0.70
2020,02,03,02,37,0.70
2020,02,03,02,38,0.70
2020,02,03,02,39,0.80
2020,02,03,02,40,0.80
2020,02,03,02,41,0.80
2020,02,03,02,42,0.80
2020,02,03,02,43,0.70
2020,02,03,02,44,0.70
2020,02,03,02,45,0.70
2020,02,03,02,46,0.70
2020,02,03,02,47,0.70
2020,02,03,02,48,0.70
2020,02,03,02,49,0.70
2020,02,03,02,50,0.70
2020,02,03,02,51,0.60
2020,02,03,02,52,0.60
2020,02,03,02,53,0.60
2020,02,03,02,54,0.60
2020,02,03,02,55,0.60
2020,02,03,02,56,0.60
2020,02,03,02,57,0.60
2020,02,03,02,58,0.60
2020,02,03,02,59,0.60
2020,02,03,03,00,0.60
2020,02,03,03,01,0.60
2020,02,03,03,02,0.60
2020,02,03,03,03,0.50
2020,02,03,03,04,0.50
2020,02,03,03,05,0.50
2020,02,03,03,06,0.50
2020,02,03,03,07,0.50
2020,02,03,03,08,0.50
2020,02,03,03,09,0.50
2020,02,03,03,10,0.50
2020,02,03,03,11,0.50
2020,02,03,03,12,0.50
2020,02,03,03,13,0.60
2020,02,03,03,14,0.60
2020,02,03,03,15,0.60
2020,02,03,03,16,0.70
2020,02,03,03,17,0.70
2020,02,03,03,18,0.60
2020,02,03,03,19,0.60
2020,02,03,03,20,0.60
2020,02,03,03,21,0.60
2020,02,03,03,22,0.60
2020,02,03,03,23,0.60
2020,02,03,03,24,0.60
2020,02,03,03,25,0.60
2020,02,03,03,26,0.60
2020,02,03,03,27,0.50
2020,02,03,03,28,0.50
2020,02,03,03,29,0.50
2020,02,03,03,30,0.50
2020,02,03,03,31,0.50
2020,02,03,03,32,0.40
2020,02,03,03,33,0.40
2020,02,03,03,34,0.40
2020,02,03,03,35,0.30
2020,02,03,03,36,0.30
2020,02,03,03,37,0.30
2020,02,03,03,38,0.20
2020,02,03,03,39,0.20
2020,02,03,03,40,0.20
2020,02,03,03,41,0.20
2020,02,03,03,42,0.20
2020,02,03,03,43,0.20
2020,02,03,03,44,0.20
2020,02,03,03,45,0.10
2020,02,03,03,46,0.10
2020,02,03,03,47,0.10
2020,02,03,03,48,0.00
2020,02,03,03,49,0.00
2020,02,03,03,50,-0.10
2020,02,03,03,51,-0.10
2020,02,03,03,52,-0.20
2020,02,03,03,53,-0.20
2020,02,03,03,54,-0.20
2020,02,03,03,55,-0.20
2020,02,03,03,56,-0.20
2020,02,03,03,57,-0.20
2020,02,03,03,58,-0.20
2020,02,03,03,59,-0.20
2020,02,03,04,00,-0.20
2020,02,03,04,01,-0.20
2020,02,03,04,02,-0.30
2020,02,03,04,03,-0.30
2020,02,03,04,04,-0.30
2020,02,03,04,05,-0.40
2020,02,03,04,06,-0.40
2020,02,03,04,07,-0.40
2020,02,03,04,08,-0.40
2020,02,03,04,09,-0.40
2020,02,03,04,10,-0.40
2020,02,03,04,11,-0.40
2020,02,03,04,12,-0.40
2020,02,03,04,13,-0.40
2020,02,03,04,14,-0.40
2020,02,03,04,15,-0.40
2020,02,03,04,16,-0.40
2020,02,03,04,17,-0.40
2020,02,03,04,18,-0.40
2020,02,03,08,24,-0.40
2020,02,03,08,25,-0.40
2020,02,03,08,26,-0.40
2020,02,03,08,27,-0.30
2020,02,03,08,28,-0.30
2020,02,03,08,29,-0.30
2020,02,03,08,30,-0.30
2020,02,03,08,31,-0.30
2020,02,03,08,32,-0.30
2020,02,03,08,33,-0.30
2020,02,03,08,34,-0.40
2020,02,03,08,35,-0.40
2020,02,03,08,36,-0.40
2020,02,03,08,37,-0.40
2020,02,03,08,38,-0.40
2020,02,03,08,39,-0.40
2020,02,03,08,40,-0.40
2020,02,03,08,41,-0.40
2020,02,03,08,42,-0.40
2020,02,03,08,43,-0.30
2020,02,03,08,44,-0.30
2020,02,03,08,45,-0.30
2020,02,03,08,46,-0.30
2020,02,03,08,47,-0.20
2020,02,03,08,48,-0.20
2020,02,03,08,49,-0.20
2020,02,03,08,50,-0.20
2020,02,03,08,51,-0.10
2020,02,03,08,52,-0.10
2020,02,03,08,53,-0.10
2020,02,03,08,54,0.00
2020,02,03,08,55,0.10
2020,02,03,08,56,0.10
2020,02,03,08,57,0.20
2020,02,03,08,58,0.20
2020,02,03,08,59,0.30
2020,02,03,09,00,0.30
2020,02,03,09,01,0.40
2020,02,03,09,02,0.50
2020,02,03,09,03,0.50
2020,02,03,09,04,0.60
2020,02,03,09,05,0.70
2020,02,03,09,06,0.80
2020,02,03,09,07,0.80
2020,02,03,09,08,0.90
2020,02,03,09,09,0.90
2020,02,03,09,10,1.00
2020,02,03,09,11,1.00
2020,02,03,09,12,1.10
2020,02,03,09,13,1.10
2020,02,03,09,14,1.20
2020,02,03,09,15,1.20
2020,02,03,09,16,1.30
2020,02,03,09,17,1.40
2020,02,03,09,18,1.40
2020,02,03,09,19,1.50
2020,02,03,09,20,1.60
2020,02,03,09,21,1.60
2020,02,03,09,22,1.70
2020,02,03,09,23,1.70
2020,02,03,09,24,1.80
2020,02,03,09,25,1.80
2020,02,03,09,26,1.90
2020,02,03,09,27,2.00
2020,02,03,09,28,2.10
2020,02,03,09,29,2.20
2020,02,03,09,30,2.30
2020,02,03,09,31,2.40
2020,02,03,09,32,2.50
2020,02,03,09,33,2.60
2020,02,03,09,34,2.70
2020,02,03,09,35,2.70
2020,02,03,09,36,2.70
2020,02,03,09,37,2.80
2020,02,03,09,38,2.80
2020,02,03,09,39,2.80
2020,02,03,09,40,2.90
2020,02,03,09,41,2.90
2020,02,03,09,42,2.90
2020,02,03,09,43,3.00
2020,02,03,09,44,3.00
2020,02,03,09,45,3.00
2020,02,03,09,46,3.10
2020,02,03,09,47,3.10
2020,02,03,09,48,3.20
2020,02,03,09,49,3.20
2020,02,03,09,50,3.20
2020,02,03,09,51,3.20
2020,02,03,09,52,3.30
2020,02,03,09,53,3.30
2020,02,03,09,54,3.30
2020,02,03,09,55,3.30
2020,02,03,09,56,3.40
2020,02,03,09,57,3.40
2020,02,03,09,58,3.40
2020,02,03,09,59,3.40
2020,02,03,10,00,3.40
2020,02,03,10,01,3.50
2020,02,03,10,02,3.50
2020,02,03,10,03,3.60
2020,02,03,10,04,3.60
2020,02,03,10,05,3.60
2020,02,03,10,06,3.60
2020,02,03,10,07,3.60
2020,02,03,10,08,3.60
2020,02,03,10,09,3.70
2020,02,03,10,10,3.70
2020,02,03,10,11,3.80
2020,02,03,10,12,3.80
2020,02,03,10,13,3.90
2020,02,03,10,14,4.00
2020,02,03,10,15,4.00
2020,02,03,10,16,4.10
2020,02,03,10,17,4.20
2020,02,03,10,18,4.20
2020,02,03,10,19,4.20
2020,02,03,10,20,4.20
2020,02,03,10,21,4.20
2020,02,03,10,22,4.10
2020,02,03,10,23,4.00
2020,02,03,10,24,4.00
2020,02,03,10,25,3.90
2020,02,03,10,26,3.80
2020,02,03,10,27,3.80
2020,02,03,10,28,3.80
2020,02,03,10,29,3.80
2020,02,03,10,30,3.80
2020,02,03,10,31,3.70
2020,02,03,10,32,3.70
2020,02,03,10,33,3.70
2020,02,03,10,34,3.70
2020,02,03,10,35,3.70
2020,02,03,10,36,3.70
2020,02,03,10,37,3.70
2020,02,03,10,38,3.70
2020,02,03,10,39,3.70
2020,02,03,10,40,3.60
2020,02,03,10,41,3.60
2020,02,03,10,42,3.60
2020,02,03,10,43,3.60
2020,02,03,10,44,3.60
2020,02,03,10,45,3.60
2020,02,03,10,46,3.60
2020,02,03,10,47,3.70
2020,02,03,10,48,3.60
2020,02,03,10,49,3.60
2020,02,03,10,50,3.60
2020,02,03,10,51,3.60
2020,02,03,10,52,3.60
2020,02,03,10,53,3.60
2020,02,03,10,54,3.60
2020,02,03,10,55,3.60
2020,02,03,10,56,3.60
2020,02,03,10,57,3.60
2020,02,03,10,58,3.60
2020,02,03,10,59,3.60
2020,02,03,11,00,3.60
2020,02,03,11,01,3.60
2020,02,03,11,02,3.60
2020,02,03,11,03,3.60
2020,02,03,11,04,3.60
2020,02,03,11,05,3.60
2020,02,03,11,06,3.60
2020,02,03,11,07,3.60
2020,02,03,11,08,3.60
2020,02,03,11,09,3.60
2020,02,03,11,10,3.60
2020,02,03,11,11,3.60
2020,02,03,11,12,3.60
2020,02,03,11,13,3.60
2020,02,03,11,14,3.60
2020,02,03,11,15,3.70
2020,02,03,11,16,3.70
2020,02,03,11,17,3.70
2020,02,03,11,18,3.70
2020,02,03,11,19,3.80
2020,02,03,11,20,3.80
2020,02,03,11,21,3.80
2020,02,03,11,22,3.80
2020,02,03,11,23,3.80
2020,02,03,11,24,3.80
2020,02,03,11,25,3.70
2020,02,03,11,26,3.70
2020,02,03,11,27,3.70
2020,02,03,11,28,3.80
2020,02,03,11,29,3.70
2020,02,03,11,30,3.80
2020,02,03,11,31,3.80
2020,02,03,11,32,3.80
2020,02,03,11,33,3.80
2020,02,03,11,34,3.80
2020,02,03,11,35,3.80
2020,02,03,11,36,3.80
2020,02,03,11,37,3.90
2020,02,03,11,38,3.90
2020,02,03,11,39,3.90
2020,02,03,11,40,3.90
2020,02,03,11,41,3.90
2020,02,03,11,42,3.90
2020,02,03,11,43,3.90
2020,02,03,11,44,3.90
2020,02,03,11,45,3.90
2020,02,03,11,46,3.80
2020,02,03,11,47,3.80
2020,02,03,11,48,3.80
2020,02,03,11,49,3.80
2020,02,03,11,50,3.80
2020,02,03,11,51,3.80
2020,02,03,11,52,3.80
2020,02,03,11,53,3.80
2020,02,03,11,54,3.80
2020,02,03,11,55,3.90
2020,02,03,11,56,3.90
2020,02,03,11,57,3.90
2020,02,03,11,58,3.90
2020,02,03,11,59,3.90
2020,02,03,12,00,3.90
2020,02,03,12,01,3.90
2020,02,03,12,02,3.90
2020,02,03,12,03,3.90
2020,02,03,12,04,3.90
2020,02,03,12,05,3.80
2020,02,03,12,06,3.80
2020,02,03,12,07,3.80
2020,02,03,12,08,3.80
2020,02,03,12,09,3.80
2020,02,03,12,10,3.80
2020,02,03,12,11,3.80
2020,02,03,12,12,3.80
2020,02,03,12,13,3.80
2020,02,03,12,14,3.80
2020,02,03,12,15,3.80
2020,02,03,12,16,3.80
2020,02,03,12,17,3.80
2020,02,03,12,18,3.80
2020,02,03,12,19,3.80
2020,02,03,12,20,3.80
2020,02,03,12,21,3.80
2020,02,03,12,22,3.80
2020,02,03,12,23,3.80
2020,02,03,12,24,3.90
2020,02,03,12,25,3.90
2020,02,03,12,26,3.90
2020,02,03,12,27,3.90
2020,02,03,12,28,3.90
2020,02,03,12,29,4.00
2020,02,03,12,30,4.00
2020,02,03,12,31,4.00
2020,02,03,12,32,4.10
2020,02,03,12,33,4.10
2020,02,03,12,34,4.20
2020,02,03,12,35,4.20
2020,02,03,12,36,4.20
2020,02,03,12,37,4.20
2020,02,03,12,38,4.20
2020,02,03,12,39,4.20
2020,02,03,12,40,4.20
2020,02,03,12,41,4.20
2020,02,03,12,42,4.20
2020,02,03,12,43,4.20
2020,02,03,12,44,4.20
2020,02,03,12,45,4.20
2020,02,03,12,46,4.20
2020,02,03,12,47,4.20
2020,02,03,12,48,4.30
2020,02,03,12,49,4.30
2020,02,03,12,50,4.30
2020,02,03,12,51,4.40
2020,02,03,12,52,4.40
2020,02,03,12,53,4.40
2020,02,03,12,54,4.50
2020,02,03,12,55,4.50
2020,02,03,12,56,4.60
2020,02,03,12,57,4.60
2020,02,03,12,58,4.60
2020,02,03,12,59,4.60
2020,02,03,13,00,4.60
2020,02,03,13,01,4.60
2020,02,03,13,02,4.60
2020,02,03,13,03,4.60
2020,02,03,13,04,4.60
2020,02,03,13,05,4.60
2020,02,03,13,06,4.60
2020,02,03,13,07,4.50
2020,02,03,13,08,4.50
2020,02,03,13,09,4.50
2020,02,03,13,10,4.50
2020,02,03,13,11,4.50
2020,02,03,13,12,4.50
2020,02,03,13,13,4.60
2020,02,03,13,14,4.60
2020,02,03,13,15,4.60
2020,02,03,13,16,4.60
2020,02,03,13,17,4.60
2020,02,03,13,18,4.60
2020,02,03,13,19,4.60
2020,02,03,13,20,4.60
2020,02,03,13,21,4.60
2020,02,03,13,22,4.60
2020,02,03,13,23,4.50
2020,02,03,13,24,4.50
2020,02,03,13,25,4.40
2020,02,03,13,26,4.40
2020,02,03,13,27,4.40
2020,02,03,13,28,4.30
2020,02,03,13,29,4.30
2020,02,03,13,30,4.30
2020,02,03,13,31,4.30
2020,02,03,13,32,4.30
2020,02,03,13,33,4.30
2020,02,03,13,34,4.30
2020,02,03,13,35,4.30
2020,02,03,13,36,4.30
2020,02,03,13,37,4.30
2020,02,03,13,38,4.30
2020,02,03,13,39,4.30
2020,02,03,13,40,4.30
2020,02,03,13,41,4.40
2020,02,03,13,42,4.40
2020,02,03,13,43,4.40
2020,02,03,13,44,4.40
2020,02,03,13,45,4.40
2020,02,03,13,46,4.40
2020,02,03,13,47,4.50
2020,02,03,13,48,4.50
2020,02,03,13,49,4.60
2020,02,03,13,50,4.60
2020,02,03,13,51,4.50
2020,02,03,13,52,4.50
2020,02,03,13,53,4.50
2020,02,03,13,54,4.40
2020,02,03,13,55,4.40
2020,02,03,13,56,4.40
2020,02,03,13,57,4.40
2020,02,03,13,58,4.40
2020,02,03,13,59,4.40
2020,02,03,14,00,4.40
2020,02,03,14,01,4.50
2020,02,03,14,02,4.50
2020,02,03,14,03,4.60
2020,02,03,14,04,4.60
2020,02,03,14,05,4.50
2020,02,03,14,06,4.50
2020,02,03,14,07,4.40
2020,02,03,14,08,4.40
2020,02,03,14,09,4.30
2020,02,03,14,10,4.30
2020,02,03,14,11,4.30
2020,02,03,14,12,4.30
2020,02,03,14,13,4.20
2020,02,03,14,14,4.20
2020,02,03,14,15,4.20
2020,02,03,14,16,4.10
2020,02,03,14,17,4.10
2020,02,03,14,18,4.10
2020,02,03,14,19,4.00
2020,02,03,14,20,4.00
2020,02,03,14,21,3.90
2020,02,03,14,22,3.90
2020,02,03,14,23,3.90
2020,02,03,14,24,3.90
2020,02,03,14,25,3.90
2020,02,03,14,26,3.90
2020,02,03,14,27,4.00
2020,02,03,14,28,4.00
2020,02,03,14,29,4.00
2020,02,03,14,30,4.00
2020,02,03,14,31,3.90
2020,02,03,14,32,3.90
2020,02,03,14,33,3.90
2020,02,03,14,34,3.90
2020,02,03,14,35,3.90
2020,02,03,14,36,3.90
2020,02,03,14,37,3.90
2020,02,03,14,38,3.90
2020,02,03,14,39,3.90
2020,02,03,14,40,3.90
2020,02,03,14,41,3.90
2020,02,03,14,42,3.90
2020,02,03,14,43,3.90
2020,02,03,14,44,3.90
2020,02,03,14,45,3.90
2020,02,03,14,46,3.90
2020,02,03,14,47,3.90
2020,02,03,14,48,3.90
2020,02,03,14,49,3.90
2020,02,03,14,50,3.90
2020,02,03,14,51,3.90
2020,02,03,14,52,3.90
2020,02,03,14,53,3.90
2020,02,03,14,54,3.90
2020,02,03,14,55,4.00
2020,02,03,14,56,4.00
2020,02,03,14,57,4.10
2020,02,03,14,58,4.10
2020,02,03,14,59,4.10
2020,02,03,15,00,4.20
2020,02,03,15,01,4.20
2020,02,03,15,02,4.20
2020,02,03,15,03,4.20
2020,02,03,15,04,4.20
2020,02,03,15,05,4.20
2020,02,03,15,06,4.20
2020,02,03,15,07,4.30
2020,02,03,15,08,4.30
2020,02,03,15,09,4.20
2020,02,03,15,10,4.20
2020,02,03,15,11,4.20
2020,02,03,15,12,4.20
2020,02,03,15,13,4.20
2020,02,03,15,14,4.10
2020,02,03,15,15,4.10
2020,02,03,15,16,4.10
2020,02,03,15,17,4.10
2020,02,03,15,18,4.00
2020,02,03,15,19,4.10
2020,02,03,15,20,4.00
2020,02,03,15,21,4.00
2020,02,03,15,22,4.00
2020,02,03,15,23,4.00
2020,02,03,15,24,4.10
2020,02,03,15,25,4.10
2020,02,03,15,26,4.10
2020,02,03,15,27,4.10
2020,02,03,15,28,4.10
2020,02,03,15,29,4.10
2020,02,03,15,30,4.10
2020,02,03,15,31,4.10
2020,02,03,15,32,4.10
2020,02,03,15,33,4.20
2020,02,03,15,34,4.20
2020,02,03,15,35,4.20
2020,02,03,15,36,4.20
2020,02,03,15,37,4.20
2020,02,03,15,38,4.20
2020,02,03,15,39,4.30
2020,02,03,15,40,4.30
2020,02,03,15,41,4.30
2020,02,03,15,42,4.30
2020,02,03,15,43,4.30
2020,02,03,15,44,4.40
2020,02,03,15,45,4.40
2020,02,03,15,46,4.40
2020,02,03,15,47,4.40
2020,02,03,15,48,4.50
2020,02,03,15,49,4.50
2020,02,03,15,50,4.60
2020,02,03,15,51,4.60
2020,02,03,15,52,4.60
2020,02,03,15,53,4.60
2020,02,03,15,54,4.60
2020,02,03,15,55,4.60
2020,02,03,15,56,4.60
2020,02,03,15,57,4.60
2020,02,03,15,58,4.60
2020,02,03,15,59,4.60
2020,02,03,16,00,4.60
2020,02,03,16,01,4.60
2020,02,03,16,02,4.60
2020,02,03,16,03,4.50
2020,02,03,16,04,4.50
2020,02,03,16,05,4.50
2020,02,03,16,06,4.40
2020,02,03,16,07,4.40
2020,02,03,16,08,4.40
2020,02,03,16,09,4.50
2020,02,03,16,10,4.50
2020,02,03,16,11,4.50
2020,02,03,16,12,4.40
2020,02,03,16,13,4.40
2020,02,03,16,14,4.40
2020,02,03,16,15,4.40
2020,02,03,16,16,4.40
2020,02,03,16,17,4.40
2020,02,03,16,18,4.40
2020,02,03,16,19,4.40
2020,02,03,16,20,4.40
2020,02,03,16,21,4.40
2020,02,03,16,22,4.30
2020,02,03,16,23,4.30
2020,02,03,16,24,4.30
2020,02,03,16,25,4.30
2020,02,03,16,26,4.30
2020,02,03,16,27,4.30
2020,02,03,16,28,4.30
2020,02,03,16,29,4.30
2020,02,03,16,30,4.20
2020,02,03,16,31,4.20
2020,02,03,16,32,4.20
2020,02,03,16,33,4.20
2020,02,03,16,34,4.10
2020,02,03,16,35,4.10
2020,02,03,16,36,4.10
2020,02,03,16,37,4.00
2020,02,03,16,38,4.00
2020,02,03,16,39,4.00
2020,02,03,16,40,4.00
2020,02,03,16,41,3.90
2020,02,03,16,42,3.90
2020,02,03,16,43,3.90
2020,02,03,16,44,3.90
2020,02,03,16,45,3.80
2020,02,03,16,46,3.80
2020,02,03,16,47,3.80
2020,02,03,16,48,3.80
2020,02,03,16,49,3.80
2020,02,03,16,50,3.70
2020,02,03,16,51,3.70
2020,02,03,16,52,3.70
2020,02,03,16,53,3.70
2020,02,03,16,54,3.70
2020,02,03,16,55,3.70
2020,02,03,16,56,3.70
2020,02,03,16,57,3.60
2020,02,03,16,58,3.60
2020,02,03,16,59,3.60
2020,02,03,17,00,3.60
2020,02,03,17,01,3.60
2020,02,03,17,02,3.60
2020,02,03,17,03,3.50
2020,02,03,17,04,3.50
2020,02,03,17,05,3.40
2020,02,03,17,06,3.40
2020,02,03,17,07,3.40
2020,02,03,17,08,3.40
2020,02,03,17,09,3.40
2020,02,03,17,10,3.30
2020,02,03,17,11,3.30
2020,02,03,17,12,3.30
2020,02,03,17,13,3.30
2020,02,03,17,14,3.30
2020,02,03,17,15,3.30
2020,02,03,17,16,3.30
2020,02,03,17,17,3.20
2020,02,03,17,18,3.20
2020,02,03,17,19,3.20
2020,02,03,17,20,3.20
2020,02,03,17,21,3.10
2020,02,03,17,22,3.10
2020,02,03,17,23,3.10
2020,02,03,17,24,3.10
2020,02,03,17,25,3.10
2020,02,03,17,26,3.10
2020,02,03,17,27,3.00
2020,02,03,17,28,3.00
2020,02,03,17,29,3.00
2020,02,03,17,30,3.00
2020,02,03,17,31,3.00
2020,02,03,17,32,3.00
2020,02,03,17,33,3.00
2020,02,03,17,34,3.00
2020,02,03,17,35,3.00
2020,02,03,17,36,2.90
2020,02,03,17,37,2.90
2020,02,03,17,38,2.90
2020,02,03,17,39,2.90
2020,02,03,17,40,2.90
2020,02,03,17,41,2.80
2020,02,03,17,42,2.80
2020,02,03,17,43,2.80
2020,02,03,17,44,2.80
2020,02,03,17,45,2.80
2020,02,03,17,46,2.70
2020,02,03,17,47,2.70
2020,02,03,17,48,2.70
2020,02,03,17,49,2.60
2020,02,03,17,50,2.60
2020,02,03,17,51,2.60
2020,02,03,17,52,2.50
2020,02,03,17,53,2.50
2020,02,03,17,54,2.40
2020,02,03,17,55,2.40
2020,02,03,17,56,2.30
2020,02,03,17,57,2.30
2020,02,03,17,58,2.20
2020,02,03,17,59,2.20
2020,02,03,18,00,2.20
2020,02,03,18,01,2.20
2020,02,03,18,02,2.20
2020,02,03,18,03,2.10
2020,02,03,18,04,2.10
2020,02,03,18,05,2.10
2020,02,03,18,06,2.10
2020,02,03,18,07,2.10
2020,02,03,18,08,2.10
2020,02,03,18,09,2.00
2020,02,03,18,10,2.00
2020,02,03,18,11,2.00
2020,02,03,18,12,1.90
2020,02,03,18,13,1.90
2020,02,03,18,14,1.90
2020,02,03,18,15,1.80
2020,02,03,18,16,1.80
2020,02,03,18,17,1.80
2020,02,03,18,18,1.80
2020,02,03,18,19,1.80
2020,02,03,18,20,1.80
2020,02,03,18,21,1.80
2020,02,03,18,22,1.80
2020,02,03,18,23,1.80
2020,02,03,18,24,1.80
2020,02,03,18,25,1.80
2020,02,03,18,26,1.80
2020,02,03,18,27,1.80
2020,02,03,18,28,1.80
2020,02,03,18,29,1.80
2020,02,03,18,30,1.80
2020,02,03,18,31,1.70
2020,02,03,18,32,1.70
2020,02,03,18,33,1.70
2020,02,03,18,34,1.70
2020,02,03,18,35,1.70
2020,02,03,18,36,1.60
2020,02,03,18,37,1.60
2020,02,03,18,38,1.60
2020,02,03,18,39,1.60
2020,02,03,18,40,1.60
2020,02,03,18,41,1.50
2020,02,03,18,42,1.50
2020,02,03,18,43,1.50
2020,02,03,18,44,1.40
2020,02,03,18,45,1.40
2020,02,03,18,46,1.40
2020,02,03,18,47,1.40
2020,02,03,18,48,1.40
2020,02,03,18,49,1.30
2020,02,03,18,50,1.30
2020,02,03,18,51,1.30
2020,02,03,18,52,1.30
2020,02,03,18,53,1.20
2020,02,03,18,54,1.20
2020,02,03,18,55,1.20
2020,02,03,18,56,1.20
2020,02,03,18,57,1.20
2020,02,03,18,58,1.10
2020,02,03,18,59,1.10
2020,02,03,19,00,1.00
2020,02,03,19,01,1.00
2020,02,03,19,02,0.90
2020,02,03,19,03,0.80
2020,02,03,19,04,0.80
2020,02,03,19,05,0.70
2020,02,03,19,06,0.70
2020,02,03,19,07,0.70
2020,02,03,19,08,0.70
2020,02,03,19,09,0.60
2020,02,03,19,10,0.60
2020,02,03,19,11,0.60
2020,02,03,19,12,0.60
2020,02,03,19,13,0.60
2020,02,03,19,14,0.50
2020,02,03,19,15,0.50
2020,02,03,19,16,0.50
2020,02,03,19,17,0.50
2020,02,03,19,18,0.50
2020,02,03,19,19,0.50
2020,02,03,19,20,0.50
2020,02,03,19,21,0.50
2020,02,03,19,22,0.50
2020,02,03,19,23,0.50
2020,02,03,19,24,0.50
2020,02,03,19,25,0.50
2020,02,03,19,26,0.50
2020,02,03,19,27,0.40
2020,02,03,19,28,0.40
2020,02,03,19,29,0.40
2020,02,03,19,30,0.50
2020,02,03,19,31,0.50
2020,02,03,19,32,0.40
2020,02,03,19,33,0.40
2020,02,03,19,34,0.40
2020,02,03,19,35,0.40
2020,02,03,19,36,0.40
2020,02,03,19,37,0.30
2020,02,03,19,38,0.30
2020,02,03,19,39,0.30
2020,02,03,19,40,0.20
2020,02,03,19,41,0.20
2020,02,03,19,42,0.20
2020,02,03,19,43,0.20
2020,02,03,19,44,0.20
2020,02,03,19,45,0.20
2020,02,03,19,46,0.10
2020,02,03,19,47,0.10
2020,02,03,19,48,0.00
2020,02,03,19,49,0.00
2020,02,03,19,50,0.00
2020,02,03,19,51,-0.10
2020,02,03,19,52,-0.10
2020,02,03,19,53,-0.20
2020,02,03,19,54,-0.20
2020,02,03,19,55,-0.20
2020,02,03,19,56,-0.20
2020,02,03,19,57,-0.20
2020,02,03,19,58,-0.20
2020,02,03,19,59,-0.20
2020,02,03,20,00,-0.20
2020,02,03,20,01,-0.20
2020,02,03,20,02,-0.20
2020,02,03,20,03,-0.20
2020,02,03,20,04,-0.30
2020,02,03,20,05,-0.30
2020,02,03,20,06,-0.30
2020,02,03,20,07,-0.30
2020,02,03,20,08,-0.30
2020,02,03,20,09,-0.30
2020,02,03,20,10,-0.30
2020,02,03,20,11,-0.30
2020,02,03,20,12,-0.30
2020,02,03,20,13,-0.30
2020,02,03,20,14,-0.30
2020,02,03,20,15,-0.30
2020,02,03,20,16,-0.30
2020,02,03,20,17,-0.30
2020,02,03,20,18,-0.30
2020,02,03,20,19,-0.30
2020,02,03,20,20,-0.30
2020,02,03,20,21,-0.30
2020,02,03,20,22,-0.30
2020,02,03,20,23,-0.30
2020,02,03,20,24,-0.30
2020,02,03,20,25,-0.30
2020,02,03,20,26,-0.40
2020,02,03,20,27,-0.40
2020,02,03,20,28,-0.40
2020,02,03,20,29,-0.40
2020,02,03,20,30,-0.40
2020,02,03,20,31,-0.40
2020,02,03,20,32,-0.40
2020,02,03,20,33,-0.40
2020,02,03,20,34,-0.40
2020,02,03,20,35,-0.30
2020,02,03,20,36,-0.30
2020,02,03,20,37,-0.30
2020,02,03,20,38,-0.30
2020,02,03,20,39,-0.30
2020,02,03,20,40,-0.30
2020,02,03,20,41,-0.30
2020,02,03,20,42,-0.30
2020,02,03,20,43,-0.30
2020,02,03,20,44,-0.30
2020,02,03,20,45,-0.30
2020,02,03,20,46,-0.30
2020,02,03,20,47,-0.30
2020,02,03,20,48,-0.30
2020,02,03,20,49,-0.20
2020,02,03,20,50,-0.20
2020,02,03,20,51,-0.30
2020,02,03,20,52,-0.30
2020,02,03,20,53,-0.30
2020,02,03,20,54,-0.30
2020,02,03,20,55,-0.30
2020,02,03,20,56,-0.30
2020,02,03,20,57,-0.30
2020,02,03,20,58,-0.30
2020,02,03,20,59,-0.30
2020,02,03,21,00,-0.30
2020,02,03,21,01,-0.30
2020,02,03,21,02,-0.30
2020,02,03,21,03,-0.30
2020,02,03,21,04,-0.30
2020,02,03,21,05,-0.30
2020,02,03,21,06,-0.30
2020,02,03,21,07,-0.30
2020,02,03,21,08,-0.30
2020,02,03,21,09,-0.30
2020,02,03,21,10,-0.40
2020,02,03,21,11,-0.40
2020,02,03,21,12,-0.40
2020,02,03,21,13,-0.40
2020,02,03,21,14,-0.40
2020,02,03,21,15,-0.40
2020,02,03,21,16,-0.40
2020,02,03,21,17,-0.40
2020,02,03,21,18,-0.40
2020,02,03,21,19,-0.40
2020,02,03,21,20,-0.40
2020,02,03,21,21,-0.40
2020,02,03,21,22,-0.40
2020,02,03,21,23,-0.40
2020,02,03,21,24,-0.50
2020,02,03,21,25,-0.50
2020,02,03,21,26,-0.50
2020,02,03,21,27,-0.50
2020,02,03,21,28,-0.50
2020,02,03,21,29,-0.50
2020,02,03,21,30,-0.50
2020,02,03,21,31,-0.60
2020,02,03,21,32,-0.60
2020,02,03,21,33,-0.60
2020,02,03,21,34,-0.60
2020,02,03,21,35,-0.60
2020,02,03,21,36,-0.60
2020,02,03,21,37,-0.60
2020,02,03,21,38,-0.60
2020,02,03,21,39,-0.60
2020,02,03,21,40,-0.60
2020,02,03,21,41,-0.60
2020,02,03,21,42,-0.60
2020,02,03,21,43,-0.60
2020,02,03,21,44,-0.60
2020,02,03,21,45,-0.60
2020,02,03,21,46,-0.60
2020,02,03,21,47,-0.60
2020,02,03,21,48,-0.60
2020,02,03,21,49,-0.60
2020,02,03,21,50,-0.60
2020,02,03,21,51,-0.70
2020,02,03,21,52,-0.70
2020,02,03,21,53,-0.70
2020,02,03,21,54,-0.70
2020,02,03,21,55,-0.70
2020,02,03,21,56,-0.70
2020,02,03,21,57,-0.70
2020,02,03,21,58,-0.70
2020,02,03,21,59,-0.70
2020,02,03,22,00,-0.70
2020,02,03,22,01,-0.70
2020,02,03,22,02,-0.70
2020,02,03,22,03,-0.70